Location: Bethera
(33.2010°N, 79.7880°W)
Time: 17:32:24
(UTC-04:00)

Amateur Radio Satellites - All Passes

Search period start: 17 August 2017 17:02
Search period end: 18 August 2017 17:02
Location: Bethera, 33.2010°N, 79.7880°W

Satellite Date Start Highest point End Downlink Frequencies (MHz)
Time Altitude Azimuth
JUGNU 17 Aug 17:26:09 17:28:41 13° 195° (SSW) 17:31:12 437.505
KKS-1 17 Aug 17:27:20 17:30:40 21° 96° (E) 17:34:00 437.445
SRMSAT 17 Aug 17:27:47 17:32:14 22° 180° (S) 17:36:41 437.500
DOVE 4 17 Aug 17:40:38 17:45:44 51° 75° (ENE) 17:50:50 437.250
Tancredo 1 17 Aug 17:51:08 17:53:43 29° 39° (NE) 17:56:18 437.200
ISS 17 Aug 17:55:49 17:57:00 11° 29° (NNE) 17:58:10 437.550
AO-7 17 Aug 17:56:42 18:01:20 16° 267° (W) 18:05:59 .
BEESAT 2 17 Aug 17:59:16 18:01:33 15° 251° (WSW) 18:03:49 435.950
KAITUO 1B 17 Aug 18:04:16 18:06:36 16° 70° (ENE) 18:08:57 145.475/437.950
nSIGHT-1 17 Aug 18:08:33 18:10:30 15° 32° (NNE) 18:12:25 .
LilacSat-2 17 Aug 18:11:04 18:14:21 29° 73° (ENE) 18:17:39 437.200
RS-15 17 Aug 18:11:51 18:16:12 12° 12° (NNE) 18:20:30 29.354- 29.394
CUTE-I 17 Aug 18:13:44 18:18:29 33° 70° (ENE) 18:23:14 437.470
STARS 17 Aug 18:16:26 18:20:16 30° 98° (E) 18:24:04 437.465
XW-2D 17 Aug 18:19:58 18:23:25 37° 75° (ENE) 18:26:55 145.860 - 145.880
YUBILEINY 17 Aug 18:30:24 18:37:41 28° 287° (WNW) 18:44:59 435.215
XW-2B 17 Aug 18:30:43 18:34:20 51° 76° (ENE) 18:37:59 145.730 - 145.750
CUBESAT XI-V 17 Aug 18:33:57 18:37:54 27° 289° (WNW) 18:41:51 437.345
NUDT-PHONESAT 17 Aug 18:41:32 18:45:04 50° 76° (ENE) 18:48:38 437.300
XW-2C 17 Aug 18:49:27 18:53:11 82° 258° (WSW) 18:56:56 145.795 - 145.815
KKS-1 17 Aug 19:03:25 19:07:09 27° 289° (WNW) 19:10:53 437.445
XW-2F 17 Aug 19:04:56 19:08:34 52° 260° (W) 19:12:14 145.980 - 146.000
CUBEBUG 2 17 Aug 19:08:29 19:10:01 12° 68° (ENE) 19:11:32 437.445
SRMSAT 17 Aug 19:16:55 19:20:46 18° 190° (S) 19:24:38 437.500
DOVE 4 17 Aug 19:20:22 19:23:35 16° 267° (W) 19:26:48 437.250
Tancredo 1 17 Aug 19:27:04 19:28:44 14° 232° (SW) 19:30:23 437.200
ISS 17 Aug 19:30:35 19:33:51 81° 224° (SW) 19:37:05 437.550
CUTE 1.7 + AOD 2 17 Aug 19:33:55 19:37:58 48° 75° (ENE) 19:42:03 437.475
HO-68 17 Aug 19:35:08 19:42:12 67° 72° (ENE) 19:49:17 435.675
KAITUO 1B 17 Aug 19:37:22 19:40:23 24° 264° (W) 19:43:25 145.475/437.950
nSIGHT-1 17 Aug 19:43:56 19:47:04 49° 227° (SW) 19:50:11 .
LilacSat-2 17 Aug 19:46:48 19:48:39 13° 266° (W) 19:50:31 437.200
AAUSAT CUBESAT 2 17 Aug 19:51:45 19:54:45 20° 70° (ENE) 19:57:47 437.432
STARS 17 Aug 19:53:17 19:56:21 19° 291° (WNW) 19:59:24 437.465
CUTE-I 17 Aug 19:54:07 19:58:28 25° 264° (W) 20:02:50 437.470
XW-2D 17 Aug 19:57:18 19:57:44 10° 267° (W) 19:58:10 145.860 - 145.880
ZACube-1 17 Aug 19:57:24 19:59:07 12° 68° (ENE) 20:00:49 437.345
AO-73 17 Aug 20:19:25 20:22:29 20° 71° (ENE) 20:25:33 145.935
RS-15 17 Aug 20:23:36 20:34:15 34° 46° (NE) 20:44:21 29.354- 29.394
SEEDS 17 Aug 20:29:01 20:33:07 55° 260° (W) 20:37:16 437.485
O/OREOS (USA 219) 17 Aug 20:31:30 20:35:37 33° 66° (ENE) 20:39:43 437.305
CUBEBUG 2 17 Aug 20:41:58 20:46:12 48° 260° (W) 20:50:20 437.445
UWE-3 17 Aug 20:42:29 20:46:46 88° 258° (WSW) 20:50:58 435.000/436.395/437.385
XW-2A 17 Aug 20:42:39 20:45:40 32° 262° (W) 20:48:42 145.665 - 145.685
STRAND 1 17 Aug 20:50:08 20:55:15 89° 284° (WNW) 21:00:20 437.568
Oscar 11 17 Aug 21:07:36 21:11:49 59° 75° (ENE) 21:16:03 .
CUTE 1.7 + AOD 2 17 Aug 21:13:19 21:14:01 10° 268° (W) 21:14:43 437.475
HO-68 17 Aug 21:25:42 21:30:20 18° 266° (W) 21:35:00 435.675
AAUSAT CUBESAT 2 17 Aug 21:26:32 21:30:00 26° 264° (W) 21:33:29 437.432
ZACube-1 17 Aug 21:31:01 21:35:00 42° 261° (W) 21:38:56 437.345
DELFI C3 17 Aug 21:31:14 21:34:20 22° 71° (ENE) 21:37:28 145.870
EO-88 17 Aug 21:34:46 21:36:16 12° 69° (ENE) 21:37:47 145.990 - 145.960
AO-73 17 Aug 21:55:08 21:58:33 24° 264° (W) 22:01:57 145.935
FO-29 17 Aug 22:00:16 22:05:01 29° 96° (E) 22:09:28 435.910
Max Valier Satellite 17 Aug 22:04:01 22:07:28 41° 75° (ENE) 22:10:54 145.860
UNISAT 6 17 Aug 22:06:01 22:07:36 12° 93° (E) 22:09:10 437.425
O/OREOS (USA 219) 17 Aug 22:11:39 22:14:43 18° 260° (W) 22:17:47 437.305
RS-15 17 Aug 22:35:47 22:47:31 68° 248° (WSW) 22:58:36 29.354- 29.394
TIGRISAT 17 Aug 22:40:16 22:44:00 29° 97° (E) 22:47:47 435.000
PCSat 17 Aug 23:04:32 23:09:07 29° 107° (ESE) 23:13:43 145.827
DELFI C3 17 Aug 23:05:57 23:08:58 21° 264° (W) 23:12:01 145.870
EO-88 17 Aug 23:06:23 23:09:36 30° 262° (W) 23:12:51 145.990 - 145.960
ESTCUBE 1 17 Aug 23:11:49 23:15:03 20° 69° (ENE) 23:18:17 437.505/2401.250
LO-87 17 Aug 23:14:50 23:17:57 28° 74° (ENE) 23:21:05 145.935 - 145.965
PRISM 17 Aug 23:16:30 23:20:35 59° 101° (E) 23:24:36 437.425
UNISAT 6 17 Aug 23:40:21 23:44:28 45° 286° (WNW) 23:48:37 437.425
FO-29 17 Aug 23:45:23 23:50:00 27° 293° (WNW) 23:54:21 435.910
AIST 2D 17 Aug 23:55:23 23:58:14 22° 96° (E) 00:01:04 435.315
SO-50 17 Aug 23:57:42 00:02:00 45° 114° (ESE) 00:06:18 436.795
SPROUT 18 Aug 00:09:48 00:12:52 20° 70° (ENE) 00:15:58 437.525
DUCHIFAT 1 18 Aug 00:17:02 00:18:54 13° 94° (E) 00:20:47 145.980
TIGRISAT 18 Aug 00:17:26 00:20:28 19° 290° (WNW) 00:23:32 435.000
M-CUBED/EXP-1 PRIME 18 Aug 00:34:10 00:38:28 54° 104° (ESE) 00:42:25 437.505
PCSat 18 Aug 00:47:34 00:52:21 32° 302° (WNW) 00:57:11 145.827
ESTCUBE 1 18 Aug 00:47:37 00:51:35 31° 263° (W) 00:55:35 437.505/2401.250
LO-87 18 Aug 00:49:48 00:51:24 12° 266° (W) 00:52:59 145.935 - 145.965
NANOSAT C BR1 18 Aug 00:58:07 01:02:11 49° 100° (E) 01:06:14 145.865
POLYITAN 1 18 Aug 00:59:18 01:03:26 59° 100° (E) 01:07:35 437.675
VELOX 1 18 Aug 01:09:16 01:13:43 85° 77° (ENE) 01:18:11 145.980
UKube-1 18 Aug 01:10:38 01:12:51 14° 67° (ENE) 01:15:04 .
QB50P2 18 Aug 01:14:10 01:18:22 79° 285° (WNW) 01:22:34 145.880/145.840
EO-79 18 Aug 01:16:10 01:20:22 83° 283° (WNW) 01:24:34 145.935-145.965
DX 1 18 Aug 01:23:02 01:26:53 31° 71° (ENE) 01:30:44 434.975-435.025
AIST 2D 18 Aug 01:29:01 01:31:12 16° 289° (WNW) 01:33:22 435.315
SO-50 18 Aug 01:39:43 01:42:38 17° 309° (NW) 01:45:34 436.795
SPROUT 18 Aug 01:44:55 01:48:33 27° 263° (W) 01:52:12 437.525
DUCHIFAT 1 18 Aug 01:50:47 01:54:41 39° 287° (WNW) 01:58:34 145.980
Oscar 19 18 Aug 01:58:39 02:02:48 24° 96° (E) 02:06:56 437.125/150
BUGSAT 1 18 Aug 02:04:51 02:08:52 71° 103° (ESE) 02:12:51 437.445
M-CUBED/EXP-1 PRIME 18 Aug 02:10:42 02:12:15 12° 300° (WNW) 02:13:45 437.505
50 SAT 18 Aug 02:10:47 02:13:56 35° 261° (W) 02:17:06 437.505
ITUPSAT 1 18 Aug 02:28:42 02:29:36 10° 64° (ENE) 02:30:30 437.325
NANOSAT C BR1 18 Aug 02:36:20 02:37:23 11° 294° (WNW) 02:38:28 145.865
Gurwin Techsat 1B 18 Aug 02:43:24 02:48:27 43° 99° (E) 02:53:29 435.225
UKube-1 18 Aug 02:44:23 02:48:28 41° 261° (W) 02:52:35 .
YUBILEINY 18 Aug 02:49:03 02:55:02 20° 70° (ENE) 03:00:59 435.215
NO-84 18 Aug 02:53:13 02:56:01 44° 314° (NW) 02:58:46 435.350 FM
DX 1 18 Aug 03:00:02 03:03:03 18° 265° (W) 03:06:05 434.975-435.025
BEESAT 18 Aug 03:30:10 03:34:47 54° 74° (ENE) 03:39:25 436.000
Oscar 19 18 Aug 03:37:29 03:42:05 33° 290° (WNW) 03:46:41 437.125/150
MOZHAYETS 4 18 Aug 03:44:14 03:48:41 61° 75° (ENE) 03:53:11
CUBESAT XI-V 18 Aug 03:57:04 03:59:40 15° 67° (ENE) 04:02:17 437.345
ITUPSAT 1 18 Aug 04:02:04 04:06:48 68° 258° (WSW) 04:11:33 437.325
AO-7 18 Aug 04:06:29 04:14:02 37° 100° (E) 04:21:29 .
KKS-1 18 Aug 04:22:45 04:24:37 12° 66° (ENE) 04:26:29 437.445
Gurwin Techsat 1B 18 Aug 04:24:18 04:28:01 20° 293° (WNW) 04:31:43 435.225
YUBILEINY 18 Aug 04:43:54 04:52:33 72° 267° (W) 05:01:09 435.215
ITAMSAT 1 18 Aug 04:49:06 04:54:18 76° 104° (ESE) 04:59:26 435.822/435.867
STARS 18 Aug 05:09:44 05:12:32 17° 68° (ENE) 05:15:21 437.465
BEESAT 18 Aug 05:11:01 05:12:49 12° 267° (W) 05:14:36 436.000
AO-85 18 Aug 05:30:29 05:32:05 12° 109° (ESE) 05:33:40 145.980
CUBESAT XI-V 18 Aug 05:32:12 05:36:36 44° 261° (W) 05:41:04 437.345
DOVE 4 18 Aug 05:45:39 05:48:31 17° 93° (E) 05:51:18 437.250
KKS-1 18 Aug 05:56:20 06:00:41 50° 260° (W) 06:05:02 437.445
AO-7 18 Aug 05:59:04 06:06:42 42° 295° (WNW) 06:14:19 .
BEESAT 3 18 Aug 06:00:59 06:04:50 50° 114° (ESE) 06:08:44 437.485
BEESAT 2 18 Aug 06:08:33 06:11:06 17° 109° (ESE) 06:13:43 435.950
XW-2C 18 Aug 06:27:27 06:29:29 14° 94° (E) 06:31:31 145.795 - 145.815
ITAMSAT 1 18 Aug 06:31:46 06:33:02 11° 297° (WNW) 06:34:18 435.822/435.867
CUTE-I 18 Aug 06:35:44 06:39:21 18° 94° (E) 06:42:56 437.470
XW-2F 18 Aug 06:41:36 06:44:29 20° 96° (E) 06:47:21 145.980 - 146.000
STARS 18 Aug 06:44:31 06:48:33 35° 261° (W) 06:52:36 437.465
AO-85 18 Aug 07:08:21 07:12:05 38° 302° (WNW) 07:15:45 145.980
HO-68 18 Aug 07:10:02 07:13:43 15° 92° (E) 07:17:24 435.675
KAITUO 1B 18 Aug 07:11:46 07:15:21 39° 99° (E) 07:18:55 145.475/437.950
LilacSat-2 18 Aug 07:21:43 07:25:36 85° 102° (ESE) 07:29:29 437.200
DOVE 4 18 Aug 07:22:13 07:26:19 33° 288° (WNW) 07:30:12 437.250
CUTE 1.7 + AOD 2 18 Aug 07:24:56 07:26:31 12° 92° (E) 07:28:06 437.475
XW-2D 18 Aug 07:30:04 07:33:55 76° 283° (WNW) 07:37:44 145.860 - 145.880
BEESAT 3 18 Aug 07:40:55 07:42:40 12° 310° (NW) 07:44:27 437.485
XW-2B 18 Aug 07:41:05 07:44:50 55° 285° (WNW) 07:48:36 145.730 - 145.750
BEESAT 2 18 Aug 07:45:01 07:48:34 31° 304° (WNW) 07:52:11 435.950
NUDT-PHONESAT 18 Aug 07:49:21 07:53:02 59° 283° (WNW) 07:56:43 437.300
PCSat 18 Aug 07:58:42 08:00:05 11° 47° (NE) 08:01:27 145.827
XW-2C 18 Aug 08:00:18 08:03:41 30° 287° (WNW) 08:07:03 145.795 - 145.815
STRAND 1 18 Aug 08:01:36 08:06:43 84° 76° (ENE) 08:11:51 437.568
XW-2A 18 Aug 08:08:47 08:11:05 17° 96° (E) 08:13:22 145.665 - 145.685
FO-29 18 Aug 08:10:28 08:12:54 12° 61° (ENE) 08:15:17 435.910
CUTE-I 18 Aug 08:14:30 08:19:31 44° 288° (WNW) 08:24:31 437.470
XW-2F 18 Aug 08:15:34 08:18:28 21° 289° (WNW) 08:21:21 145.980 - 146.000
SEEDS 18 Aug 08:17:02 08:20:51 31° 97° (E) 08:24:37 437.485
SO-50 18 Aug 08:33:58 08:36:33 15° 49° (NE) 08:39:08 436.795
UWE-3 18 Aug 08:36:24 08:39:52 24° 96° (E) 08:43:23 435.000/436.395/437.385
CUBEBUG 2 18 Aug 08:36:30 08:40:32 44° 99° (E) 08:44:37 437.445
KAITUO 1B 18 Aug 08:47:58 08:48:55 11° 292° (WNW) 08:49:53 145.475/437.950
HO-68 18 Aug 08:54:51 09:02:01 79° 287° (WNW) 09:09:10 435.675
CUTE 1.7 + AOD 2 18 Aug 08:58:26 09:02:31 44° 285° (WNW) 09:06:36 437.475
Oscar 11 18 Aug 09:00:15 09:02:48 15° 94° (E) 09:05:20 .
AAUSAT CUBESAT 2 18 Aug 09:11:50 09:15:59 64° 100° (E) 09:20:07 437.432
ZACube-1 18 Aug 09:22:48 09:26:55 46° 99° (E) 09:31:08 437.345
NO-84 18 Aug 09:30:27 09:31:49 12° 38° (NE) 09:33:15 435.350 FM
TIGRISAT 18 Aug 09:35:55 09:38:32 16° 69° (ENE) 09:41:07 435.000
PCSat 18 Aug 09:38:48 09:44:15 84° 65° (ENE) 09:49:39 145.827
XW-2A 18 Aug 09:41:16 09:43:40 18° 288° (WNW) 09:46:05 145.665 - 145.685
AO-73 18 Aug 09:45:48 09:50:05 80° 100° (E) 09:54:28 145.935
FO-29 18 Aug 09:49:09 09:56:54 74° 75° (ENE) 10:04:07 435.910
SEEDS 18 Aug 09:53:28 09:56:14 17° 291° (WNW) 09:59:00 437.485
PRISM 18 Aug 10:01:52 10:05:11 23° 70° (ENE) 10:08:30 437.425
SO-50 18 Aug 10:12:49 10:17:18 55° 245° (WSW) 10:21:49 436.795
UWE-3 18 Aug 10:12:54 10:16:11 22° 289° (WNW) 10:19:30 435.000/436.395/437.385
Tancredo 1 18 Aug 10:14:34 10:17:28 76° 135° (SE) 10:20:23 437.200
CUBEBUG 2 18 Aug 10:15:05 10:16:45 12° 292° (WNW) 10:18:25 437.445
ISS 18 Aug 10:31:39 10:34:16 22° 129° (SE) 10:36:54 437.550
UNISAT 6 18 Aug 10:34:26 10:38:50 89° 71° (ENE) 10:43:10 437.425
Oscar 11 18 Aug 10:35:01 10:39:00 36° 287° (WNW) 10:42:58 .
EO-88 18 Aug 10:38:59 10:42:08 27° 97° (E) 10:45:16 145.990 - 145.960
O/OREOS (USA 219) 18 Aug 10:39:06 10:43:33 87° 107° (ESE) 10:48:02 437.305
RS-15 18 Aug 10:42:05 10:51:52 30° 103° (ESE) 11:01:45 29.354- 29.394
nSIGHT-1 18 Aug 10:43:35 10:46:33 33° 131° (SE) 10:49:32 .
DELFI C3 18 Aug 10:45:50 10:49:48 64° 100° (E) 10:53:43 145.870
HO-68 18 Aug 10:46:01 10:48:35 12° 303° (WNW) 10:51:09 435.675
ZACube-1 18 Aug 11:01:03 11:02:47 12° 292° (WNW) 11:04:32 437.345
NO-84 18 Aug 11:06:10 11:09:23 52° 231° (SW) 11:12:52 435.350 FM
TIGRISAT 18 Aug 11:10:52 11:14:55 36° 262° (W) 11:18:54 435.000
Max Valier Satellite 18 Aug 11:11:17 11:14:58 73° 283° (WNW) 11:18:40 145.860
M-CUBED/EXP-1 PRIME 18 Aug 11:15:08 11:19:06 35° 67° (ENE) 11:23:15 437.505
PRISM 18 Aug 11:37:07 11:40:20 22° 264° (W) 11:43:34 437.425
FO-29 18 Aug 11:37:09 11:42:11 19° 267° (W) 11:47:04 435.910
JUGNU 18 Aug 11:45:15 11:48:29 15° 167° (SSE) 11:51:42 437.505
NANOSAT C BR1 18 Aug 11:46:32 11:49:43 21° 70° (ENE) 11:52:53 145.865
POLYITAN 1 18 Aug 11:48:01 11:51:27 25° 71° (ENE) 11:54:53 437.675
AIST 2D 18 Aug 11:57:35 12:01:02 88° 260° (W) 12:04:32 435.315
QB50P2 18 Aug 12:02:19 12:06:17 41° 74° (ENE) 12:10:16 145.880/145.840
EO-79 18 Aug 12:04:11 12:08:06 39° 74° (ENE) 12:12:02 145.935-145.965
ISS 18 Aug 12:07:50 12:10:39 26° 323° (NW) 12:13:27 437.550
EO-88 18 Aug 12:13:29 12:15:31 14° 290° (WNW) 12:17:33 145.990 - 145.960
LO-87 18 Aug 12:18:29 12:21:59 66° 101° (E) 12:25:29 145.935 - 145.965
nSIGHT-1 18 Aug 12:20:33 12:23:00 19° 326° (NW) 12:25:26 .
DUCHIFAT 1 18 Aug 12:37:37 12:41:48 82° 75° (ENE) 12:45:58 145.980
ESTCUBE 1 18 Aug 12:43:29 12:48:03 75° 102° (ESE) 12:52:34 437.505/2401.250
M-CUBED/EXP-1 PRIME 18 Aug 12:50:30 12:53:32 18° 262° (W) 12:56:41 437.505
BUGSAT 1 18 Aug 12:50:32 12:54:01 27° 72° (ENE) 12:57:28 437.445
RS-15 18 Aug 12:51:11 13:03:19 70° 301° (WNW) 13:15:41 29.354- 29.394
VELOX 1 18 Aug 13:04:11 13:07:36 22° 96° (E) 13:10:58 145.980
Oscar 19 18 Aug 13:11:38 13:15:37 23° 68° (ENE) 13:19:38 437.125/150
NANOSAT C BR1 18 Aug 13:21:50 13:25:15 24° 263° (W) 13:28:41 145.865
POLYITAN 1 18 Aug 13:23:58 13:27:08 21° 264° (W) 13:30:18 437.675
JUGNU 18 Aug 13:32:29 13:36:50 21° 177° (S) 13:41:10 437.505
SPROUT 18 Aug 13:33:51 13:38:04 66° 101° (E) 13:42:15 437.525
50 SAT 18 Aug 13:37:14 13:39:16 15° 95° (E) 13:41:17 437.505
QB50P2 18 Aug 13:40:30 13:42:13 12° 267° (W) 13:43:55 145.880/145.840
SRMSAT 18 Aug 13:41:34 13:42:16 10° 162° (SSE) 13:42:57 437.500
EO-79 18 Aug 13:42:01 13:43:58 13° 266° (W) 13:45:55 145.935-145.965
Gurwin Techsat 1B 18 Aug 14:00:13 14:05:16 46° 73° (ENE) 14:10:20 435.225
BUGSAT 1 18 Aug 14:26:27 14:29:19 18° 264° (W) 14:32:10 437.445
UKube-1 18 Aug 14:35:18 14:39:23 41° 99° (E) 14:43:27 .
VELOX 1 18 Aug 14:40:16 14:43:57 26° 289° (WNW) 14:47:36 145.980
Oscar 19 18 Aug 14:50:04 14:54:41 34° 262° (W) 14:59:21 437.125/150
DX 1 18 Aug 14:50:42 14:55:03 77° 284° (WNW) 14:59:22 434.975-435.025
AO-7 18 Aug 15:00:58 15:08:22 37° 63° (ENE) 15:15:46 .
50 SAT 18 Aug 15:09:19 15:11:51 20° 288° (WNW) 15:14:22 437.505
RS-15 18 Aug 15:09:58 15:18:35 21° 327° (NNW) 15:27:14 29.354- 29.394
JUGNU 18 Aug 15:21:04 15:25:13 20° 187° (S) 15:29:21 437.505
SRMSAT 18 Aug 15:26:42 15:30:43 19° 171° (S) 15:34:44 437.500
BEESAT 18 Aug 15:35:19 15:38:42 19° 95° (E) 15:42:04 436.000
Gurwin Techsat 1B 18 Aug 15:41:55 15:45:23 18° 266° (W) 15:48:52 435.225
AO-85 18 Aug 15:42:15 15:46:29 46° 59° (ENE) 15:51:00 145.980
MOZHAYETS 4 18 Aug 15:44:09 15:47:31 20° 95° (E) 15:50:53
YUBILEINY 18 Aug 15:44:37 15:51:33 27° 84° (E) 15:58:28 435.215
BEESAT 3 18 Aug 15:58:49 16:02:47 73° 243° (WSW) 16:06:39 437.485
ITAMSAT 1 18 Aug 16:02:42 16:07:53 76° 75° (ENE) 16:13:06 435.822/435.867
BEESAT 2 18 Aug 16:06:06 16:09:52 37° 58° (ENE) 16:13:35 435.950
ITUPSAT 1 18 Aug 16:06:45 16:11:18 42° 99° (E) 16:15:49 437.325
UKube-1 18 Aug 16:12:50 16:15:00 14° 293° (WNW) 16:17:10 .
Tancredo 1 18 Aug 16:42:08 16:43:04 11° 31° (NNE) 16:44:00 437.200
DOVE 4 18 Aug 16:46:49 16:49:35 14° 66° (ENE) 16:52:20 437.250
